| time (UTC) | temp F | wind direction | speed MPH | gust MPH | rain 1hr in | rain 24hr in | rain mn in | humidity % | barometer mb |
| 20260506155115 | 75 | 0 | 0.0 | 0.0 | 0.00 | 0.00 | 0.00 | 4 | 1003.7 |
| 20260506154615 | 75 | 28 | 0.0 | 1.0 | 0.00 | 0.00 | 0.00 | 4 | 1003.8 |
| 20260506154114 | 75 | 333 | 0.0 | 1.0 | 0.00 | 0.00 | 0.00 | 4 | 1003.9 |
| 20260506153614 | 75 | 0 | 0.0 | 0.0 | 0.00 | 0.00 | 0.00 | 4 | 1003.8 |
| 20260506153114 | 75 | 326 | 0.0 | 1.0 | 0.00 | 0.00 | 0.00 | 4 | 1003.7 |
| 20260506152613 | 74 | 0 | 0.0 | 0.0 | 0.00 | 0.00 | 0.00 | 4 | 1003.8 |
| 20260506152113 | 74 | 0 | 0.0 | 0.0 | 0.00 | 0.00 | 0.00 | 4 | 1003.9 |
| 20260506151613 | 74 | 0 | 0.0 | 0.0 | 0.00 | 0.00 | 0.00 | 4 | 1003.8 |
| 20260506151112 | 75 | 348 | 0.0 | 1.0 | 0.00 | 0.00 | 0.00 | 4 | 1003.8 |
| 20260506150612 | 75 | 357 | 0.0 | 1.0 | 0.00 | 0.00 | 0.00 | 4 | 1003.8 |
| 20260506150112 | 75 | 0 | 0.0 | 0.0 | 0.00 | 0.00 | 0.00 | 4 | 1003.6 |
| 20260506145611 | 76 | 0 | 0.0 | 0.0 | 0.00 | 0.00 | 0.00 | 4 | 1003.9 |
| 20260506145111 | 76 | 0 | 0.0 | 0.0 | 0.00 | 0.00 | 0.00 | 4 | 1003.9 |
| 20260506144611 | 75 | 0 | 0.0 | 0.0 | 0.00 | 0.00 | 0.00 | 4 | 1003.8 |
| 20260506144110 | 75 | 1 | 0.0 | 1.0 | 0.00 | 0.00 | 0.00 | 4 | 1003.8 |
| 20260506143610 | 76 | 10 | 0.0 | 1.0 | 0.00 | 0.00 | 0.00 | 4 | 1003.7 |
| 20260506143110 | 76 | 0 | 0.0 | 0.0 | 0.00 | 0.00 | 0.00 | 4 | 1003.8 |
| 20260506142609 | 74 | 11 | 0.0 | 1.0 | 0.00 | 0.00 | 0.00 | 4 | 1003.8 |
| 20260506142109 | 74 | 302 | 0.0 | 1.0 | 0.00 | 0.00 | 0.00 | 4 | 1003.6 |
| 20260506141609 | 75 | 0 | 0.0 | 0.0 | 0.00 | 0.00 | 0.00 | 4 | 1003.9 |
| 20260506141108 | 75 | 24 | 0.0 | 1.0 | 0.00 | 0.00 | 0.00 | 4 | 1003.7 |
| 20260506140608 | 75 | 0 | 0.0 | 0.0 | 0.00 | 0.00 | 0.00 | 4 | 1003.8 |
| 20260506140108 | 75 | 0 | 0.0 | 0.0 | 0.00 | 0.00 | 0.00 | 4 | 1003.7 |
| 20260506135607 | 75 | 8 | 0.0 | 1.0 | 0.00 | 0.00 | 0.00 | 4 | 1003.7 |
| 20260506135107 | 75 | 0 | 0.0 | 0.0 | 0.00 | 0.00 | 0.00 | 4 | 1003.7 |
| 20260506134607 | 75 | 0 | 0.0 | 0.0 | 0.00 | 0.00 | 0.00 | 4 | 1003.7 |
| 20260506134106 | 74 | 0 | 0.0 | 0.0 | 0.00 | 0.00 | 0.00 | 4 | 1003.6 |
| 20260506133606 | 74 | 230 | 1.0 | 2.0 | 0.00 | 0.00 | 0.00 | 4 | 1003.7 |
| 20260506133106 | 75 | 309 | 0.0 | 1.0 | 0.00 | 0.00 | 0.00 | 4 | 1003.6 |
| 20260506132605 | 75 | 215 | 1.0 | 2.0 | 0.00 | 0.00 | 0.00 | 4 | 1003.7 |
| 20260506132105 | 75 | 0 | 0.0 | 0.0 | 0.00 | 0.00 | 0.00 | 4 | 1003.4 |
| 20260506131605 | 75 | 35 | 0.0 | 1.0 | 0.00 | 0.00 | 0.00 | 4 | 1003.6 |
| 20260506131104 | 75 | 0 | 0.0 | 0.0 | 0.00 | 0.00 | 0.00 | 4 | 1003.7 |
| 20260506130604 | 74 | 308 | 0.0 | 1.0 | 0.00 | 0.00 | 0.00 | 4 | 1003.7 |
| 20260506130104 | 74 | 0 | 0.0 | 0.0 | 0.00 | 0.00 | 0.00 | 4 | 1003.6 |
| 20260506125603 | 76 | 0 | 0.0 | 0.0 | 0.00 | 0.00 | 0.00 | 4 | 1003.6 |
| 20260506125103 | 75 | 212 | 0.0 | 1.0 | 0.00 | 0.00 | 0.00 | 4 | 1003.6 |
| 20260506124603 | 75 | 201 | 3.0 | 4.0 | 0.00 | 0.00 | 0.00 | 4 | 1004.0 |
| 20260506124102 | 74 | 75 | 0.0 | 1.0 | 0.00 | 0.00 | 0.00 | 4 | 1003.7 |
| 20260506123602 | 74 | 0 | 0.0 | 0.0 | 0.00 | 0.00 | 0.00 | 4 | 1003.9 |
| 20260506123102 | 74 | 0 | 0.0 | 0.0 | 0.00 | 0.00 | 0.00 | 4 | 1004.0 |
| 20260506122601 | 74 | 214 | 0.0 | 1.0 | 0.00 | 0.00 | 0.00 | 4 | 1003.9 |
| 20260506122101 | 74 | 0 | 0.0 | 0.0 | 0.00 | 0.00 | 0.00 | 4 | 1003.7 |
| 20260506121601 | 74 | 7 | 1.0 | 2.0 | 0.00 | 0.00 | 0.00 | 4 | 1003.8 |
| 20260506121100 | 74 | 0 | 0.0 | 0.0 | 0.00 | 0.00 | 0.00 | 4 | 1003.6 |
| 20260506120600 | 74 | 133 | 0.0 | 1.0 | 0.00 | 0.00 | 0.00 | 4 | 1003.7 |
| 20260506120100 | 74 | 14 | 0.0 | 1.0 | 0.00 | 0.00 | 0.00 | 4 | 1003.9 |
| 20260506115559 | 75 | 0 | 0.0 | 0.0 | 0.00 | 0.00 | 0.00 | 4 | 1003.6 |
| 20260506115059 | 75 | 0 | 0.0 | 0.0 | 0.00 | 0.00 | 0.00 | 4 | 1003.5 |
| 20260506114559 | 76 | 31 | 0.0 | 1.0 | 0.00 | 0.00 | 0.00 | 4 | 1003.8 |
| 20260506114058 | 77 | 0 | 0.0 | 0.0 | 0.00 | 0.00 | 0.00 | 4 | 1003.6 |
| 20260506113558 | 77 | 0 | 0.0 | 0.0 | 0.00 | 0.00 | 0.00 | 4 | 1003.4 |
| 20260506113057 | 75 | 0 | 0.0 | 0.0 | 0.00 | 0.00 | 0.00 | 4 | 1003.4 |
| 20260506112557 | 75 | 0 | 0.0 | 0.0 | 0.00 | 0.00 | 0.00 | 4 | 1004.0 |
| 20260506112057 | 75 | 8 | 0.0 | 1.0 | 0.00 | 0.00 | 0.00 | 4 | 1003.7 |
| 20260506111557 | 75 | 0 | 0.0 | 0.0 | 0.00 | 0.00 | 0.00 | 4 | 1003.6 |
| 20260506111056 | 75 | 247 | 2.0 | 4.0 | 0.00 | 0.00 | 0.00 | 4 | 1003.8 |
| 20260506110556 | 75 | 221 | 1.0 | 2.0 | 0.00 | 0.00 | 0.00 | 4 | 1003.5 |
| 20260506110055 | 76 | 179 | 1.0 | 2.0 | 0.00 | 0.00 | 0.00 | 4 | 1003.7 |
| 20260506105555 | 76 | 86 | 1.0 | 2.0 | 0.00 | 0.00 | 0.00 | 4 | 1003.6 |
| 20260506105055 | 75 | 0 | 0.0 | 0.0 | 0.00 | 0.00 | 0.00 | 4 | 1003.7 |
| 20260506104554 | 75 | 214 | 1.0 | 2.0 | 0.00 | 0.00 | 0.00 | 4 | 1003.7 |
| 20260506104054 | 74 | 19 | 0.0 | 1.0 | 0.00 | 0.00 | 0.00 | 4 | 1003.7 |
| 20260506103554 | 75 | 152 | 0.0 | 1.0 | 0.00 | 0.00 | 0.00 | 4 | 1003.3 |
| 20260506103053 | 75 | 161 | 0.0 | 2.0 | 0.00 | 0.00 | 0.00 | 4 | 1003.5 |
| 20260506102553 | 74 | 0 | 0.0 | 0.0 | 0.00 | 0.00 | 0.00 | 4 | 1003.6 |
| 20260506102053 | 75 | 37 | 0.0 | 1.0 | 0.00 | 0.00 | 0.00 | 4 | 1003.8 |
| 20260506101552 | 75 | 227 | 2.0 | 4.0 | 0.00 | 0.00 | 0.00 | 4 | 1003.4 |
| 20260506101052 | 75 | 119 | 0.0 | 1.0 | 0.00 | 0.00 | 0.00 | 4 | 1003.7 |
| 20260506100552 | 75 | 0 | 0.0 | 0.0 | 0.00 | 0.00 | 0.00 | 4 | 1003.8 |
| 20260506100052 | 75 | 350 | 1.0 | 3.0 | 0.00 | 0.00 | 0.00 | 4 | 1003.6 |
| 20260506095551 | 74 | 0 | 0.0 | 0.0 | 0.00 | 0.00 | 0.00 | 4 | 1003.9 |
| 20260506095051 | 74 | 0 | 0.0 | 0.0 | 0.00 | 0.00 | 0.00 | 4 | 1003.7 |
| 20260506094551 | 75 | 0 | 0.0 | 0.0 | 0.00 | 0.00 | 0.00 | 4 | 1003.6 |
| 20260506094050 | 75 | 0 | 0.0 | 0.0 | 0.00 | 0.00 | 0.00 | 4 | 1003.9 |
| 20260506093550 | 74 | 0 | 0.0 | 0.0 | 0.00 | 0.00 | 0.00 | 4 | 1003.7 |
| 20260506093050 | 74 | 259 | 2.0 | 3.0 | 0.00 | 0.00 | 0.00 | 4 | 1003.6 |
| 20260506092549 | 73 | 0 | 0.0 | 0.0 | 0.00 | 0.00 | 0.00 | 4 | 1003.5 |
| 20260506092049 | 73 | 0 | 0.0 | 0.0 | 0.00 | 0.00 | 0.00 | 4 | 1003.8 |
| 20260506091549 | 73 | 25 | 0.0 | 1.0 | 0.00 | 0.00 | 0.00 | 4 | 1003.5 |
| 20260506091048 | 73 | 0 | 0.0 | 0.0 | 0.00 | 0.00 | 0.00 | 4 | 1003.6 |
| 20260506090548 | 74 | 0 | 0.0 | 0.0 | 0.00 | 0.00 | 0.00 | 4 | 1003.5 |
| 20260506090048 | 74 | 0 | 0.0 | 0.0 | 0.00 | 0.00 | 0.00 | 4 | 1003.6 |
| 20260506085547 | 74 | 0 | 0.0 | 0.0 | 0.00 | 0.00 | 0.00 | 4 | 1003.6 |
| 20260506085047 | 75 | 0 | 0.0 | 0.0 | 0.00 | 0.00 | 0.00 | 4 | 1003.6 |
| 20260506084547 | 75 | 0 | 0.0 | 0.0 | 0.00 | 0.00 | 0.00 | 3 | 1003.7 |
| 20260506084046 | 74 | 343 | 0.0 | 1.0 | 0.00 | 0.00 | 0.00 | 4 | 1003.5 |
| 20260506083546 | 74 | 0 | 0.0 | 0.0 | 0.00 | 0.00 | 0.00 | 4 | 1003.4 |
| 20260506083046 | 75 | 0 | 0.0 | 0.0 | 0.00 | 0.00 | 0.00 | 4 | 1003.4 |
| 20260506082545 | 75 | 0 | 0.0 | 0.0 | 0.00 | 0.00 | 0.00 | 4 | 1003.4 |
| 20260506082045 | 74 | 0 | 0.0 | 0.0 | 0.00 | 0.00 | 0.00 | 4 | 1003.3 |
| 20260506081545 | 72 | 0 | 0.0 | 0.0 | 0.00 | 0.00 | 0.00 | 4 | 1003.3 |
| 20260506081044 | 71 | 0 | 0.0 | 0.0 | 0.00 | 0.00 | 0.00 | 4 | 1003.4 |
| 20260506080544 | 72 | 0 | 0.0 | 0.0 | 0.00 | 0.00 | 0.00 | 4 | 1003.3 |
| 20260506073042 | 71 | 18 | 0.0 | 1.0 | 0.00 | 0.00 | 0.00 | 4 | 1003.9 |
| 20260506072541 | 72 | 0 | 0.0 | 0.0 | 0.00 | 0.00 | 0.00 | 4 | 1003.9 |
| 20260506072041 | 72 | 0 | 0.0 | 0.0 | 0.00 | 0.00 | 0.00 | 4 | 1003.9 |
| 20260506071541 | 72 | 188 | 2.0 | 3.0 | 0.00 | 0.00 | 0.00 | 4 | 1003.9 |
| 20260506071040 | 72 | 7 | 1.0 | 2.0 | 0.00 | 0.00 | 0.00 | 4 | 1003.8 |
| 20260506070540 | 70 | 0 | 0.0 | 0.0 | 0.00 | 0.00 | 0.00 | 4 | 1004.0 |
| 20260506062037 | 66 | 0 | 0.0 | 0.0 | 0.00 | 0.00 | 0.00 | 5 | 1004.4 |
| 20260506061536 | 65 | 0 | 0.0 | 0.0 | 0.00 | 0.00 | 0.00 | 5 | 1004.2 |
| 20260506061036 | 64 | 0 | 0.0 | 0.0 | 0.00 | 0.00 | 0.00 | 6 | 1004.4 |
| 20260506060536 | 64 | 0 | 0.0 | 0.0 | 0.00 | 0.00 | 0.00 | 6 | 1004.5 |
| 20260506051032 | 55 | 0 | 0.0 | 0.0 | 0.00 | 0.00 | 0.00 | 8 | 1005.1 |
| 20260506050532 | 54 | 0 | 0.0 | 0.0 | 0.00 | 0.00 | 0.00 | 8 | 1004.6 |
| 20260506045031 | 53 | 0 | 0.0 | 0.0 | 0.00 | 0.00 | 0.00 | 9 | 1004.4 |
| 20260506044531 | 53 | 21 | 0.0 | 1.0 | 0.00 | 0.00 | 0.00 | 9 | 1004.6 |
| 20260506044030 | 53 | 0 | 0.0 | 0.0 | 0.00 | 0.00 | 0.00 | 9 | 1004.6 |
| 20260506043530 | 53 | 0 | 0.0 | 0.0 | 0.00 | 0.00 | 0.00 | 9 | 1004.7 |
| 20260506043030 | 53 | 232 | 0.0 | 1.0 | 0.00 | 0.00 | 0.00 | 9 | 1004.7 |
| 20260506042529 | 53 | 0 | 0.0 | 0.0 | 0.00 | 0.00 | 0.00 | 9 | 1004.9 |
| 20260506042029 | 53 | 0 | 0.0 | 0.0 | 0.00 | 0.00 | 0.00 | 9 | 1005.0 |
| 20260506041529 | 52 | 0 | 0.0 | 0.0 | 0.00 | 0.00 | 0.00 | 9 | 1005.1 |
| 20260506041028 | 52 | 0 | 0.0 | 0.0 | 0.00 | 0.00 | 0.00 | 9 | 1004.9 |
| 20260506040528 | 52 | 0 | 0.0 | 0.0 | 0.00 | 0.00 | 0.00 | 9 | 1005.0 |
| 20260506040028 | 52 | 0 | 0.0 | 0.0 | 0.00 | 0.00 | 0.00 | 9 | 1005.2 |
| 20260506035527 | 52 | 0 | 0.0 | 0.0 | 0.00 | 0.00 | 0.00 | 9 | 1005.0 |
| 20260506035027 | 52 | 0 | 0.0 | 0.0 | 0.00 | 0.00 | 0.00 | 9 | 1005.1 |
| 20260506034527 | 52 | 0 | 0.0 | 0.0 | 0.00 | 0.00 | 0.00 | 9 | 1005.1 |
| 20260506034026 | 52 | 0 | 0.0 | 0.0 | 0.00 | 0.00 | 0.00 | 9 | 1005.2 |
| 20260506033526 | 52 | 0 | 0.0 | 0.0 | 0.00 | 0.00 | 0.00 | 9 | 1005.3 |
| 20260506033026 | 52 | 224 | 1.0 | 2.0 | 0.00 | 0.00 | 0.00 | 8 | 1004.9 |
| 20260506032525 | 52 | 45 | 0.0 | 1.0 | 0.00 | 0.00 | 0.00 | 8 | 1005.1 |
| 20260506032025 | 52 | 0 | 0.0 | 0.0 | 0.00 | 0.00 | 0.00 | 8 | 1005.4 |
| 20260506031525 | 52 | 0 | 0.0 | 0.0 | 0.00 | 0.00 | 0.00 | 8 | 1005.4 |
| 20260506031024 | 51 | 0 | 0.0 | 0.0 | 0.00 | 0.00 | 0.00 | 8 | 1005.3 |
| 20260506030524 | 51 | 0 | 0.0 | 0.0 | 0.00 | 0.00 | 0.00 | 8 | 1005.4 |
| 20260506030024 | 52 | 0 | 0.0 | 0.0 | 0.00 | 0.00 | 0.00 | 8 | 1005.3 |
| 20260506025523 | 52 | 0 | 0.0 | 0.0 | 0.00 | 0.00 | 0.00 | 8 | 1005.2 |
| 20260506025023 | 51 | 0 | 0.0 | 0.0 | 0.00 | 0.00 | 0.00 | 8 | 1005.4 |
| 20260506024523 | 51 | 0 | 0.0 | 0.0 | 0.00 | 0.00 | 0.00 | 8 | 1005.3 |
| 20260506024022 | 52 | 5 | 0.0 | 1.0 | 0.00 | 0.00 | 0.00 | 8 | 1005.5 |
| 20260506023522 | 52 | 0 | 0.0 | 0.0 | 0.00 | 0.00 | 0.00 | 8 | 1005.4 |
| 20260506023022 | 52 | 0 | 0.0 | 0.0 | 0.00 | 0.00 | 0.00 | 8 | 1005.5 |
| 20260506022521 | 52 | 0 | 0.0 | 0.0 | 0.00 | 0.00 | 0.00 | 8 | 1005.4 |
| 20260506022021 | 52 | 53 | 0.0 | 1.0 | 0.00 | 0.00 | 0.00 | 8 | 1005.8 |
| 20260506021521 | 52 | 0 | 0.0 | 0.0 | 0.00 | 0.00 | 0.00 | 8 | 1005.8 |
| 20260506021020 | 52 | 0 | 0.0 | 0.0 | 0.00 | 0.00 | 0.00 | 8 | 1005.5 |
| 20260506020520 | 52 | 0 | 0.0 | 0.0 | 0.00 | 0.00 | 0.00 | 8 | 1005.6 |
| 20260506020020 | 52 | 0 | 0.0 | 0.0 | 0.00 | 0.00 | 0.00 | 8 | 1005.5 |
| 20260506015519 | 52 | 0 | 0.0 | 0.0 | 0.00 | 0.00 | 0.00 | 8 | 1005.5 |
| 20260506015019 | 52 | 0 | 0.0 | 0.0 | 0.00 | 0.00 | 0.00 | 8 | 1005.6 |
| 20260506014519 | 52 | 0 | 0.0 | 0.0 | 0.00 | 0.00 | 0.00 | 8 | 1005.6 |
| 20260506014018 | 52 | 0 | 0.0 | 0.0 | 0.00 | 0.00 | 0.00 | 8 | 1005.8 |
| 20260506013518 | 52 | 0 | 0.0 | 0.0 | 0.00 | 0.00 | 0.00 | 8 | 1005.4 |
| 20260506013018 | 52 | 0 | 0.0 | 0.0 | 0.00 | 0.00 | 0.00 | 8 | 1005.8 |
| 20260506012517 | 53 | 0 | 0.0 | 0.0 | 0.00 | 0.00 | 0.00 | 8 | 1005.9 |
| 20260506012017 | 53 | 0 | 0.0 | 0.0 | 0.00 | 0.00 | 0.00 | 8 | 1005.5 |
| 20260506011517 | 53 | 134 | 0.0 | 1.0 | 0.00 | 0.00 | 0.00 | 8 | 1005.6 |
| 20260506011016 | 53 | 0 | 0.0 | 0.0 | 0.00 | 0.00 | 0.00 | 8 | 1005.8 |
| 20260506010516 | 53 | 0 | 0.0 | 0.0 | 0.00 | 0.00 | 0.00 | 8 | 1005.8 |
| 20260506010016 | 54 | 0 | 0.0 | 0.0 | 0.00 | 0.00 | 0.00 | 8 | 1005.7 |
| 20260506005515 | 54 | 0 | 0.0 | 0.0 | 0.00 | 0.00 | 0.00 | 8 | 1005.4 |
| 20260506005015 | 54 | 0 | 0.0 | 0.0 | 0.00 | 0.00 | 0.00 | 8 | 1005.4 |
| 20260506004515 | 54 | 0 | 0.0 | 0.0 | 0.00 | 0.00 | 0.00 | 8 | 1005.4 |
| 20260506004014 | 54 | 0 | 0.0 | 0.0 | 0.00 | 0.00 | 0.00 | 8 | 1005.4 |
| 20260506003514 | 54 | 359 | 0.0 | 1.0 | 0.00 | 0.00 | 0.00 | 8 | 1005.4 |
| 20260506003014 | 54 | 334 | 0.0 | 1.0 | 0.00 | 0.00 | 0.00 | 8 | 1005.4 |
| 20260506002513 | 55 | 48 | 2.0 | 3.0 | 0.00 | 0.00 | 0.00 | 8 | 1005.5 |
| 20260506002013 | 55 | 0 | 0.0 | 0.0 | 0.00 | 0.00 | 0.00 | 8 | 1005.5 |
| 20260506001512 | 55 | 0 | 0.0 | 0.0 | 0.00 | 0.00 | 0.00 | 8 | 1005.6 |
| 20260506001012 | 55 | 0 | 0.0 | 0.0 | 0.00 | 0.00 | 0.00 | 8 | 1005.4 |
| 20260506000512 | 56 | 289 | 0.0 | 1.0 | 0.00 | 0.00 | 0.00 | 8 | 1005.5 |
| 20260506000011 | 56 | 11 | 0.0 | 1.0 | 0.00 | 0.00 | 0.00 | 8 | 1005.2 |
| 20260505235511 | 56 | 0 | 0.0 | 0.0 | 0.00 | 0.00 | 0.00 | 8 | 1005.0 |
| 20260505235011 | 56 | 0 | 0.0 | 0.0 | 0.00 | 0.00 | 0.00 | 8 | 1005.3 |
| 20260505234510 | 56 | 0 | 0.0 | 0.0 | 0.00 | 0.00 | 0.00 | 8 | 1005.5 |
| 20260505234010 | 57 | 0 | 0.0 | 0.0 | 0.00 | 0.00 | 0.00 | 8 | 1005.4 |
| 20260505233510 | 57 | 0 | 0.0 | 0.0 | 0.00 | 0.00 | 0.00 | 8 | 1005.2 |
| 20260505233010 | 57 | 0 | 0.0 | 0.0 | 0.00 | 0.00 | 0.00 | 8 | 1005.2 |
| 20260505232509 | 58 | 35 | 1.0 | 1.0 | 0.00 | 0.00 | 0.00 | 8 | 1005.3 |
| 20260505232009 | 58 | 0 | 0.0 | 0.0 | 0.00 | 0.00 | 0.00 | 8 | 1005.4 |
| 20260505231509 | 58 | 0 | 0.0 | 0.0 | 0.00 | 0.00 | 0.00 | 8 | 1005.4 |
| 20260505231008 | 58 | 0 | 0.0 | 0.0 | 0.00 | 0.00 | 0.00 | 8 | 1005.2 |
| 20260505230508 | 59 | 0 | 0.0 | 0.0 | 0.00 | 0.00 | 0.00 | 8 | 1005.3 |
| 20260505230008 | 59 | 0 | 0.0 | 0.0 | 0.00 | 0.00 | 0.00 | 8 | 1005.2 |
| 20260505225507 | 59 | 355 | 0.0 | 1.0 | 0.00 | 0.00 | 0.00 | 8 | 1005.1 |
| 20260505225007 | 59 | 0 | 0.0 | 0.0 | 0.00 | 0.00 | 0.00 | 8 | 1005.1 |
| 20260505224506 | 59 | 0 | 0.0 | 0.0 | 0.00 | 0.00 | 0.00 | 8 | 1005.2 |
| 20260505224006 | 59 | 0 | 0.0 | 0.0 | 0.00 | 0.00 | 0.00 | 8 | 1005.2 |
| 20260505223506 | 59 | 41 | 0.0 | 1.0 | 0.00 | 0.00 | 0.00 | 8 | 1005.2 |
| 20260505223005 | 60 | 0 | 0.0 | 0.0 | 0.00 | 0.00 | 0.00 | 8 | 1005.3 |
| 20260505222505 | 60 | 0 | 0.0 | 0.0 | 0.00 | 0.00 | 0.00 | 8 | 1005.3 |
| 20260505222005 | 60 | 0 | 0.0 | 0.0 | 0.00 | 0.00 | 0.00 | 7 | 1005.3 |
| 20260505221504 | 60 | 0 | 0.0 | 0.0 | 0.00 | 0.00 | 0.00 | 7 | 1005.4 |
| 20260505221004 | 61 | 0 | 0.0 | 0.0 | 0.00 | 0.00 | 0.00 | 7 | 1005.3 |
| 20260505220504 | 61 | 0 | 0.0 | 0.0 | 0.00 | 0.00 | 0.00 | 7 | 1005.3 |
| 20260505220004 | 61 | 50 | 1.0 | 2.0 | 0.00 | 0.00 | 0.00 | 7 | 1005.2 |
| 20260505215503 | 62 | 0 | 0.0 | 0.0 | 0.00 | 0.00 | 0.00 | 7 | 1005.5 |
| 20260505215003 | 62 | 0 | 0.0 | 0.0 | 0.00 | 0.00 | 0.00 | 7 | 1005.2 |
| 20260505214502 | 62 | 1 | 0.0 | 1.0 | 0.00 | 0.00 | 0.00 | 7 | 1005.2 |
| 20260505214002 | 62 | 17 | 0.0 | 1.0 | 0.00 | 0.00 | 0.00 | 7 | 1005.1 |
| 20260505213502 | 63 | 0 | 0.0 | 0.0 | 0.00 | 0.00 | 0.00 | 7 | 1005.2 |
| 20260505213001 | 63 | 0 | 0.0 | 0.0 | 0.00 | 0.00 | 0.00 | 7 | 1005.2 |
| 20260505212501 | 63 | 3 | 1.0 | 2.0 | 0.00 | 0.00 | 0.00 | 7 | 1005.3 |
| 20260505212001 | 63 | 0 | 0.0 | 0.0 | 0.00 | 0.00 | 0.00 | 7 | 1004.9 |
| 20260505211500 | 63 | 0 | 0.0 | 0.0 | 0.00 | 0.00 | 0.00 | 7 | 1005.2 |
| 20260505211000 | 64 | 71 | 0.0 | 1.0 | 0.00 | 0.00 | 0.00 | 7 | 1005.1 |
| 20260505210500 | 64 | 0 | 0.0 | 0.0 | 0.00 | 0.00 | 0.00 | 7 | 1005.0 |
| 20260505205959 | 64 | 312 | 0.0 | 1.0 | 0.00 | 0.00 | 0.00 | 7 | 1005.2 |
| 20260505205459 | 64 | 66 | 0.0 | 2.0 | 0.00 | 0.00 | 0.00 | 7 | 1004.6 |
| 20260505204959 | 65 | 54 | 0.0 | 3.0 | 0.00 | 0.00 | 0.00 | 7 | 1004.9 |
| 20260505204459 | 65 | 0 | 0.0 | 0.0 | 0.00 | 0.00 | 0.00 | 7 | 1004.9 |
| 20260505203958 | 65 | 0 | 0.0 | 0.0 | 0.00 | 0.00 | 0.00 | 7 | 1005.0 |
| 20260505203458 | 65 | 0 | 0.0 | 0.0 | 0.00 | 0.00 | 0.00 | 7 | 1004.9 |
| 20260505202958 | 66 | 33 | 0.0 | 1.0 | 0.00 | 0.00 | 0.00 | 6 | 1005.0 |
| 20260505202457 | 66 | 0 | 0.0 | 0.0 | 0.00 | 0.00 | 0.00 | 6 | 1005.0 |
| 20260505201957 | 66 | 333 | 0.0 | 1.0 | 0.00 | 0.00 | 0.00 | 6 | 1004.8 |
| 20260505201456 | 66 | 25 | 0.0 | 1.0 | 0.00 | 0.00 | 0.00 | 6 | 1004.9 |
| 20260505200956 | 67 | 0 | 0.0 | 0.0 | 0.00 | 0.00 | 0.00 | 6 | 1004.6 |
| 20260505200456 | 67 | 27 | 1.0 | 2.0 | 0.00 | 0.00 | 0.00 | 6 | 1004.5 |
| 20260505195956 | 68 | 38 | 0.0 | 1.0 | 0.00 | 0.00 | 0.00 | 5 | 1004.8 |
| 20260505195455 | 68 | 354 | 0.0 | 1.0 | 0.00 | 0.00 | 0.00 | 5 | 1004.3 |
| 20260505194955 | 69 | 229 | 2.0 | 2.0 | 0.00 | 0.00 | 0.00 | 4 | 1004.4 |
| 20260505194455 | 69 | 336 | 0.0 | 1.0 | 0.00 | 0.00 | 0.00 | 4 | 1004.1 |
| 20260505193954 | 68 | 229 | 1.0 | 2.0 | 0.00 | 0.00 | 0.00 | 3 | 1004.1 |
| 20260505193454 | 68 | 0 | 0.0 | 1.0 | 0.00 | 0.00 | 0.00 | 3 | 1004.4 |
| 20260505192954 | 68 | 0 | 0.0 | 0.0 | 0.00 | 0.00 | 0.00 | 3 | 1003.9 |
| 20260505192453 | 68 | 0 | 0.0 | 0.0 | 0.00 | 0.00 | 0.00 | 3 | 1004.0 |
| 20260505191953 | 69 | 0 | 0.0 | 0.0 | 0.00 | 0.00 | 0.00 | 3 | 1004.0 |
| 20260505191453 | 69 | 0 | 0.0 | 0.0 | 0.00 | 0.00 | 0.00 | 3 | 1004.1 |
| 20260505190952 | 69 | 0 | 0.0 | 0.0 | 0.00 | 0.00 | 0.00 | 3 | 1003.9 |
| 20260505190452 | 70 | 0 | 0.0 | 0.0 | 0.00 | 0.00 | 0.00 | 3 | 1004.0 |
| 20260505185951 | 70 | 0 | 0.0 | 0.0 | 0.00 | 0.00 | 0.00 | 3 | 1004.0 |
| 20260505185451 | 70 | 0 | 0.0 | 0.0 | 0.00 | 0.00 | 0.00 | 3 | 1003.9 |
| 20260505184951 | 71 | 0 | 0.0 | 0.0 | 0.00 | 0.00 | 0.00 | 3 | 1004.0 |
| 20260505184451 | 71 | 0 | 0.0 | 0.0 | 0.00 | 0.00 | 0.00 | 3 | 1004.1 |
| 20260505183950 | 72 | 0 | 0.0 | 0.0 | 0.00 | 0.00 | 0.00 | 3 | 1003.9 |
| 20260505183450 | 72 | 0 | 0.0 | 0.0 | 0.00 | 0.00 | 0.00 | 3 | 1003.9 |
| 20260505182950 | 72 | 0 | 0.0 | 0.0 | 0.00 | 0.00 | 0.00 | 3 | 1003.8 |
| 20260505182449 | 72 | 0 | 0.0 | 0.0 | 0.00 | 0.00 | 0.00 | 3 | 1003.8 |
| 20260505181949 | 72 | 0 | 0.0 | 0.0 | 0.00 | 0.00 | 0.00 | 3 | 1003.8 |
| 20260505181448 | 72 | 0 | 0.0 | 0.0 | 0.00 | 0.00 | 0.00 | 3 | 1003.7 |
| 20260505180948 | 72 | 0 | 0.0 | 0.0 | 0.00 | 0.00 | 0.00 | 3 | 1003.7 |
| 20260505180448 | 72 | 0 | 0.0 | 0.0 | 0.00 | 0.00 | 0.00 | 3 | 1003.8 |
| 20260505175947 | 73 | 0 | 0.0 | 0.0 | 0.00 | 0.00 | 0.00 | 3 | 1004.0 |
| 20260505175447 | 73 | 0 | 0.0 | 0.0 | 0.00 | 0.00 | 0.00 | 3 | 1003.9 |
| 20260505174947 | 73 | 0 | 0.0 | 0.0 | 0.00 | 0.00 | 0.00 | 3 | 1003.9 |
| 20260505174446 | 74 | 0 | 0.0 | 0.0 | 0.00 | 0.00 | 0.00 | 3 | 1003.6 |
| 20260505173946 | 74 | 0 | 0.0 | 0.0 | 0.00 | 0.00 | 0.00 | 3 | 1003.7 |
| 20260505173446 | 74 | 0 | 0.0 | 0.0 | 0.00 | 0.00 | 0.00 | 3 | 1003.7 |
| 20260505172946 | 75 | 0 | 0.0 | 0.0 | 0.00 | 0.00 | 0.00 | 2 | 1003.8 |
| 20260505172445 | 75 | 0 | 0.0 | 0.0 | 0.00 | 0.00 | 0.00 | 3 | 1004.0 |
| 20260505171945 | 75 | 0 | 0.0 | 0.0 | 0.00 | 0.00 | 0.00 | 2 | 1003.9 |
| 20260505171444 | 75 | 0 | 0.0 | 0.0 | 0.00 | 0.00 | 0.00 | 2 | 1003.8 |
| 20260505170944 | 75 | 0 | 0.0 | 0.0 | 0.00 | 0.00 | 0.00 | 2 | 1003.9 |
| 20260505170444 | 75 | 0 | 0.0 | 0.0 | 0.00 | 0.00 | 0.00 | 2 | 1003.9 |
| 20260505165943 | 76 | 0 | 0.0 | 0.0 | 0.00 | 0.00 | 0.00 | 2 | 1004.0 |
| 20260505165443 | 76 | 0 | 0.0 | 0.0 | 0.00 | 0.00 | 0.00 | 2 | 1003.8 |
| 20260505164943 | 76 | 0 | 0.0 | 0.0 | 0.00 | 0.00 | 0.00 | 2 | 1004.0 |
| 20260505164442 | 76 | 123 | 0.0 | 1.0 | 0.00 | 0.00 | 0.00 | 2 | 1003.9 |
| 20260505163942 | 77 | 290 | 0.0 | 1.0 | 0.00 | 0.00 | 0.00 | 2 | 1004.2 |
| 20260505163442 | 77 | 327 | 1.0 | 2.0 | 0.00 | 0.00 | 0.00 | 2 | 1004.1 |
| 20260505162941 | 77 | 0 | 0.0 | 0.0 | 0.00 | 0.00 | 0.00 | 2 | 1003.9 |
| 20260505162441 | 77 | 0 | 0.0 | 0.0 | 0.00 | 0.00 | 0.00 | 2 | 1004.0 |
| 20260505161941 | 77 | 27 | 0.0 | 1.0 | 0.00 | 0.00 | 0.00 | 2 | 1004.0 |
| 20260505161440 | 77 | 265 | 1.0 | 1.0 | 0.00 | 0.00 | 0.00 | 2 | 1004.0 |
| 20260505160940 | 77 | 311 | 0.0 | 1.0 | 0.00 | 0.00 | 0.00 | 2 | 1004.1 |
| 20260505160440 | 78 | 20 | 0.0 | 1.0 | 0.00 | 0.00 | 0.00 | 2 | 1004.0 |